Ладожское озеро

Россия / Санкт-Петербург и Ленинградская область     60°00′00″N   31°17′20″E
темп.,
°C
ветер,
м/с
пор.,
м/с
влажн.,
%
обл.,
%
осадки,
мм/ч
давл.,
гПа
погр.,
м
28 июля, ср
ср2800:00+19юв3367100 0.0 101525
03:00+18юв3571100 0.0 101466
06:00+18ююв3574100 0.0 101273
09:00+20ююв3567100 0.0 1012138
12:00+23ююв2461100 0.1 1010415
15:00+22ююз2367100 4.2 1009579
18:00+21зюз3476100 2.8 100771
21:00+19в3389100 5.7 100735
29 июля, чт
чт2900:00+18ю479624 2.6 1006169
03:00+17юз359775 2.8 1004109
06:00+17юз359518 0.0 1003114
09:00+19зюз5784100 0.1 1003239
12:00+20зюз467285 0.0 1003334
15:00+22з356366 0.3 1002691
18:00+19зюз36788 0.9 100195
21:00+19зюз35795 0.9 100166
30 июля, пт
пт3000:00+17юз498636 0.0 1001172
03:00+16юз479016 0.0 1001151
06:00+16юз598744 0.0 1000314
09:00+19юз586998 0.0 1001472
12:00+21юз575194 0.3 1000826
15:00+21юз69565 0.3 1000615
18:00+21зюз4755100 0.0 999849
21:00+19ююз5861100 0.1 998209
31 июля, сб
сб3100:00+15ю511846 0.3 997288
03:00+14ю61481100 0.3 996421
06:00+13ю71290100 2.6 995667
09:00+16юз7118882 2.9 995878
12:00+18зюз8127513 0.6 997920
15:00+21з811555 0.8 998780
18:00+21з69585 0.0 1000446
21:00+17зюз46737 0.0 100096
1 августа, вс
вс100:00+15юз3583100 0.0 100181
03:00+15ю349268 0.0 100196
06:00+16ю4894100 0.6 1000239
09:00+18ююз588828 3.1 999433
12:00+20юз586641 0.3 999671
15:00+20юз5864100 0.5 999551
18:00+20зюз611745 0.8 1000609
21:00+18зюз510789 1.3 1001324